CW9718 Weather Reports


time (UTC)temp
C
wind
direction
speed
KPH
gust
KPH
rain 1hr
cm
rain 24hr
cm
rain mn
cm
humidity
%
barometer
mb
20260510130824 18 143 0.0 0.0 0.00 0.00 0.00 89 1017.0
20260510130335 18 144 0.0 0.0 0.00 0.00 0.00 89 1016.8
20260510125832 18 144 0.0 0.0 0.00 0.00 0.00 89 1016.7
20260510125330 18 144 0.0 0.0 0.00 0.00 0.00 89 1016.3
20260510124827 18 144 0.0 0.0 0.00 0.00 0.00 89 1015.8
20260510124355 18 144 0.0 0.0 0.00 0.00 0.00 89 1015.6
20260510123838 18 144 0.0 0.0 0.00 0.00 0.00 88 1015.5
20260510123334 17 144 0.0 0.0 0.00 0.00 0.00 88 1015.2
20260510122825 17 144 0.0 0.0 0.00 0.00 0.00 88 1015.0
20260510122332 17 144 0.0 0.0 0.00 0.00 0.00 88 1014.8
20260510121844 17 144 0.0 0.0 0.00 0.00 0.00 88 1014.7
20260510121330 17 144 0.0 0.0 0.00 0.00 0.00 88 1014.7
20260510120834 17 144 0.0 0.0 0.00 0.00 0.00 88 1014.8
20260510120336 17 144 0.0 0.0 0.00 0.00 0.00 88 1014.7
20260510115851 17 144 0.0 0.0 0.00 0.00 0.00 88 1014.5
20260510115331 17 144 0.0 0.0 0.00 0.00 0.00 88 1014.5
20260510114830 17 144 0.0 0.0 0.00 0.00 0.00 88 1014.3
20260510114342 17 144 0.0 0.0 0.00 0.00 0.00 87 1014.1
20260510113840 17 144 0.0 0.0 0.00 0.00 0.00 87 1014.0
20260510113328 17 144 0.0 0.0 0.00 0.00 0.00 87 1013.9
20260510112832 17 146 0.0 0.0 0.00 0.00 0.00 87 1013.9
20260510112324 17 146 0.0 0.0 0.00 0.00 0.00 87 1014.4
20260510111848 17 148 0.0 0.0 0.00 0.00 0.00 87 1014.4
20260510111326 17 148 0.0 0.0 0.00 0.00 0.00 87 1014.6
20260510110826 17 148 0.0 0.0 0.00 0.00 0.00 87 1014.8
20260510110326 17 148 0.0 0.0 0.00 0.00 0.00 86 1014.8
20260510105822 17 149 0.0 0.0 0.00 0.00 0.00 86 1014.7
20260510105330 17 149 0.0 0.0 0.00 0.00 0.00 85 1014.7
20260510104839 17 149 0.0 0.0 0.00 0.00 0.00 85 1014.5
20260510104335 17 149 0.0 1.6 0.00 0.00 0.00 85 1014.5
20260510103823 17 151 0.0 0.0 0.00 0.00 0.00 84 1014.4
20260510103357 17 152 0.0 0.0 0.00 0.00 0.00 84 1014.3
20260510102855 17 155 0.0 0.0 0.00 0.00 0.00 84 1014.3
20260510102322 17 155 0.0 0.0 0.00 0.00 0.00 84 1014.1
20260510101834 17 155 0.0 0.0 0.00 0.00 0.00 84 1014.2
20260510101334 17 155 0.0 0.0 0.00 0.00 0.00 84 1014.2
20260510100844 17 155 0.0 0.0 0.00 0.00 0.00 84 1013.9
20260510100327 17 155 0.0 0.0 0.00 0.00 0.00 84 1013.5
20260510095852 17 155 0.0 0.0 0.00 0.00 0.00 84 1013.4
20260510095330 17 153 0.0 1.6 0.00 0.00 0.00 84 1013.6
20260510094834 17 153 0.0 1.6 0.00 0.00 0.00 84 1013.6
20260510094324 17 161 0.0 0.0 0.00 0.00 0.00 85 1013.4
20260510093834 17 161 0.0 1.6 0.00 0.00 0.00 85 1013.5
20260510093334 17 162 0.0 1.6 0.00 0.00 0.00 85 1013.5
20260510092832 17 163 0.0 1.6 0.00 0.00 0.00 84 1013.4
20260510092321 17 163 0.0 3.2 0.00 0.00 0.00 84 1013.6
20260510091828 17 165 0.0 1.6 0.00 0.00 0.00 84 1013.6
20260510091347 17 163 0.0 0.0 0.00 0.00 0.00 84 1013.7
20260510090832 17 80 0.0 0.0 0.00 0.00 0.00 84 1013.8
20260510090400 17 49 0.0 0.0 0.00 0.00 0.00 83 1014.2
20260510085839 17 49 0.0 0.0 0.00 0.00 0.00 83 1014.5
20260510085326 17 49 0.0 0.0 0.00 0.00 0.00 83 1014.4
20260510084859 17 49 0.0 0.0 0.00 0.00 0.00 83 1014.3
20260510084333 17 49 0.0 0.0 0.00 0.00 0.00 83 1014.3
20260510083828 18 49 0.0 0.0 0.00 0.00 0.00 83 1014.7
20260510083349 18 49 0.0 0.0 0.00 0.00 0.00 83 1014.6
20260510082843 18 49 0.0 0.0 0.00 0.00 0.00 82 1014.3
20260510082338 18 49 0.0 0.0 0.00 0.00 0.00 82 1014.6
20260510081849 18 49 0.0 0.0 0.00 0.00 0.00 82 1014.4
20260510081343 18 49 0.0 4.8 0.00 0.00 0.00 82 1014.3
20260510080851 18 332 0.0 8.0 0.00 0.00 0.00 82 1014.4
20260510080339 18 21 1.6 8.0 0.00 0.00 0.00 81 1014.4
20260510075837 18 339 4.8 8.0 0.00 0.00 0.00 81 1014.6
20260510075331 18 207 0.0 4.8 0.00 0.00 0.00 80 1014.2
20260510074832 19 115 1.6 6.4 0.00 0.00 0.00 79 1011.8
20260510074327 19 123 4.8 6.4 0.00 0.00 0.00 78 1011.3
20260510073854 19 341 0.0 6.4 0.00 0.00 0.00 77 1014.1
20260510073405 20 339 1.6 6.4 0.00 0.00 0.00 77 1014.8
20260510072854 20 338 0.0 6.4 0.00 0.00 0.00 77 1015.2
20260510072327 20 337 0.0 6.4 0.00 0.00 0.00 77 1015.4
20260510071836 20 306 1.6 8.0 0.00 0.00 0.00 77 1015.6
20260510071325 20 355 0.0 8.0 0.00 0.00 0.00 76 1015.7
20260510070844 20 220 1.6 6.4 0.00 0.00 0.00 76 1015.8
20260510070338 20 188 0.0 3.2 0.00 0.00 0.00 76 1015.8
20260510065836 20 163 0.0 1.6 0.00 0.00 0.00 76 1015.8
20260510065325 20 146 0.0 0.0 0.00 0.00 0.00 76 1016.0
20260510064833 20 146 0.0 0.0 0.00 0.00 0.00 76 1015.9
20260510064329 20 146 0.0 1.6 0.00 0.00 0.00 76 1015.9
20260510063822 20 146 0.0 1.6 0.00 0.00 0.00 77 1016.0
20260510063329 21 92 0.0 0.0 0.00 0.00 0.00 79 1015.9
20260510062822 21 82 0.0 0.0 0.00 0.00 0.00 79 1015.6
20260510062400 21 82 0.0 0.0 0.00 0.00 0.00 77 1015.0
20260510061821 21 82 0.0 0.0 0.00 0.00 0.00 76 1014.5
20260510061328 21 82 0.0 0.0 0.00 0.00 0.00 76 1014.2
20260510060823 21 82 0.0 0.0 0.00 0.00 0.00 76 1014.0
20260510060331 21 82 0.0 0.0 0.00 0.00 0.00 75 1013.6
20260510055835 21 82 0.0 0.0 0.00 0.00 0.00 75 1013.5
20260510055341 21 82 0.0 0.0 0.00 0.00 0.00 74 1014.0
20260510054844 21 82 0.0 0.0 0.00 0.00 0.00 74 1013.9
20260510054333 21 82 0.0 0.0 0.00 0.00 0.00 72 1013.5
20260510053850 21 82 0.0 0.0 0.00 0.00 0.00 73 1013.2
20260510053334 21 82 0.0 0.0 0.00 0.00 0.00 73 1013.2
20260510052838 21 76 0.0 0.0 0.00 0.00 0.00 74 1013.3
20260510052331 21 76 0.0 0.0 0.00 0.00 0.00 73 1013.6
20260510051836 21 76 0.0 0.0 0.00 0.00 0.00 72 1013.8
20260510051348 21 76 0.0 0.0 0.00 0.00 0.00 72 1013.9
20260510050835 21 75 0.0 0.0 0.00 0.00 0.00 71 1014.0
20260510050335 21 75 0.0 0.0 0.00 0.00 0.00 71 1014.1
20260510045824 21 75 0.0 0.0 0.00 0.00 0.00 70 1013.9
20260510045323 21 75 0.0 0.0 0.00 0.00 0.00 70 1013.9
20260510044831 21 75 0.0 0.0 0.00 0.00 0.00 70 1013.9
20260510044325 21 75 0.0 0.0 0.00 0.00 0.00 72 1013.6
20260510043828 21 75 0.0 0.0 0.00 0.00 0.00 70 1013.7
20260510043322 21 75 0.0 0.0 0.00 0.00 0.00 70 1013.8
20260510042830 21 75 0.0 0.0 0.00 0.00 0.00 70 1014.0